DW6743 Weather Reports


time (UTC)temp
C
wind
direction
speed
KPH
gust
KPH
rain 1hr
cm
rain 24hr
cm
rain mn
cm
humidity
%
barometer
mb
20260506103804 11 0 16.1 20.9 0.00 0.00 0.00 48 1011.9
20260506103057 11 13 8.0 20.9 0.00 0.00 0.00 45 1011.8
20260506101804 11 4 14.5 20.9 0.00 0.00 0.00 51 1012.0
20260506101604 11 7 14.5 19.3 0.00 0.00 0.00 51 1011.9
20260506100804 11 332 14.5 19.3 0.00 0.00 0.00 48 1012.0
20260506100304 11 317 12.9 20.9 0.00 0.00 0.00 52 1012.0
20260506100100 11 329 12.9 20.9 0.00 0.00 0.00 53 1011.8
20260506094804 11 344 11.3 19.3 0.00 0.00 0.00 52 1012.0
20260506094622 11 336 11.3 19.3 0.00 0.00 0.00 50 1012.0
20260506094304 11 327 12.9 19.3 0.00 0.00 0.00 50 1012.0
20260506093805 11 326 14.5 19.3 0.00 0.00 0.00 50 1011.9
20260506093304 11 338 14.5 22.5 0.00 0.00 0.00 49 1011.9
20260506093057 11 319 12.9 22.5 0.00 0.00 0.00 49 1011.8
20260506091804 12 332 12.9 22.5 0.00 0.00 0.00 46 1011.9
20260506091557 12 325 9.7 17.7 0.00 0.00 0.00 44 1011.9
20260506091304 12 335 11.3 19.3 0.00 0.00 0.00 45 1012.0
20260506090804 12 319 8.0 16.1 0.00 0.00 0.00 31 1011.9
20260506090304 12 275 3.2 12.9 0.00 0.00 0.00 31 1012.0
20260506090059 12 0 1.6 12.9 0.00 0.00 0.00 30 1011.8
20260506084804 12 193 9.7 14.5 0.00 0.00 0.00 31 1012.0
20260506084602 12 174 6.4 19.3 0.00 0.00 0.00 31 1012.0
20260506083804 12 219 11.3 19.3 0.00 0.00 0.00 32 1012.0
20260506083305 12 203 3.2 20.9 0.00 0.00 0.00 31 1012.0
20260506083103 12 257 4.8 20.9 0.00 0.00 0.00 31 1011.9
20260506081804 12 212 8.0 16.1 0.00 0.00 0.00 34 1012.1
20260506081559 11 254 9.7 20.9 0.00 0.00 0.00 35 1012.0
20260506081304 11 219 9.7 16.1 0.00 0.00 0.00 38 1012.0
20260506080804 11 193 16.1 20.9 0.00 0.00 0.00 36 1012.1
20260506080304 11 198 16.1 22.5 0.00 0.00 0.00 37 1012.0
20260506073304 11 210 12.9 24.1 0.00 0.00 0.00 40 1012.1
20260506073105 10 169 9.7 22.5 0.00 0.00 0.00 41 1012.0
20260506071804 10 175 14.5 20.9 0.00 0.00 0.00 44 1012.0
20260506071559 10 184 12.9 24.1 0.00 0.00 0.00 44 1012.0
20260506071304 10 193 14.5 22.5 0.00 0.00 0.00 46 1012.1
20260506070804 10 169 9.7 19.3 0.00 0.00 0.00 45 1012.1
20260506070304 10 194 14.5 20.9 0.00 0.00 0.00 45 1012.0
20260506070109 9 183 12.9 19.3 0.00 0.00 0.00 45 1012.0
20260506061806 8 178 14.5 19.3 0.00 0.00 0.00 49 1012.1
20260506061600 8 181 8.0 19.3 0.00 0.00 0.00 49 1012.2
20260506061304 8 159 11.3 19.3 0.00 0.00 0.00 51 1012.1
20260506060804 8 167 9.7 16.1 0.00 0.00 0.00 52 1012.1
20260506060304 8 179 12.9 19.3 0.00 0.00 0.00 53 1012.0
20260506060105 7 126 12.9 19.3 0.00 0.00 0.00 54 1011.9
20260506050804 3 167 9.7 19.3 0.00 0.00 0.00 79 1012.2
20260506050305 3 173 11.3 16.1 0.00 0.00 0.00 80 1012.3
20260506044804 2 166 8.0 11.3 0.00 0.00 0.00 80 1012.2
20260506044600 2 171 6.4 12.9 0.00 0.00 0.00 79 1012.2
20260506044304 2 168 8.0 12.9 0.00 0.00 0.00 80 1012.3
20260506043804 1 167 8.0 12.9 0.00 0.00 0.00 80 1012.3
20260506043304 1 162 8.0 14.5 0.00 0.00 0.00 80 1012.3
20260506043059 1 164 8.0 14.5 0.00 0.00 0.00 80 1012.2
20260506041804 1 167 9.7 14.5 0.00 0.00 0.00 80 1012.4
20260506041558 0 170 9.7 17.7 0.00 0.00 0.00 80 1012.2
20260506041304 1 170 11.3 14.5 0.00 0.00 0.00 80 1012.2
20260506040805 0 165 11.3 14.5 0.00 0.00 0.00 80 1012.3
20260506040304 0 162 11.3 19.3 0.00 0.00 0.00 80 1012.2
20260506040105 0 165 11.3 16.1 0.00 0.00 0.00 79 1012.2
20260506034804 0 169 12.9 19.3 0.00 0.00 0.00 79 1012.2
20260506034615 0 169 9.7 19.3 0.00 0.00 0.00 78 1012.2
20260506034304 1 161 8.0 12.9 0.00 0.00 0.00 79 1012.3
20260506033804 1 156 9.7 12.9 0.00 0.00 0.00 79 1012.2
20260506033305 1 159 9.7 16.1 0.00 0.00 0.00 79 1012.2
20260506033056 1 163 11.3 16.1 0.00 0.00 0.00 78 1012.1
20260506031605 1 171 12.9 17.7 0.00 0.00 0.00 79 1012.1
20260506031304 1 177 14.5 16.1 0.00 0.00 0.00 80 1012.2
20260506030804 1 168 12.9 16.1 0.00 0.00 0.00 80 1012.1
20260506030304 1 167 16.1 19.3 0.00 0.00 0.00 80 1012.1
20260506024557 1 167 11.3 16.1 0.00 0.00 0.00 80 1012.1
20260506024305 1 164 11.3 16.1 0.00 0.00 0.00 81 1012.0
20260506023804 1 161 11.3 16.1 0.00 0.00 0.00 81 1012.2
20260506023304 1 165 14.5 19.3 0.00 0.00 0.00 81 1012.1
20260506023059 0 168 14.5 19.3 0.00 0.00 0.00 81 1012.1
20260506021804 0 171 16.1 19.3 0.00 0.00 0.00 82 1012.2
20260506021600 0 169 12.9 17.7 0.00 0.00 0.00 81 1012.2
20260506021304 0 164 11.3 14.5 0.00 0.00 0.00 81 1012.2
20260506020804 0 165 11.3 14.5 0.00 0.00 0.00 81 1012.2
20260506014804 0 184 16.1 19.3 0.00 0.00 0.00 81 1012.2
20260506014557 0 179 12.9 17.7 0.00 0.00 0.00 81 1012.1
20260506014304 0 168 11.3 12.9 0.00 0.00 0.00 81 1012.1
20260506013059 0 140 6.4 9.7 0.00 0.00 0.00 80 1012.0
20260506011805 0 136 8.0 12.9 0.00 0.00 0.00 80 1012.1
20260506011606 0 129 4.8 14.5 0.00 0.00 0.00 80 1011.9
20260506011304 0 144 9.7 14.5 0.00 0.00 0.00 80 1012.0
20260506010804 0 161 12.9 14.5 0.00 0.00 0.00 80 1011.9
20260506010304 1 151 9.7 11.3 0.00 0.00 0.00 80 1012.0
20260506010059 0 151 9.7 11.3 0.00 0.00 0.00 80 1011.9
20260506004805 1 132 9.7 14.5 0.00 0.00 0.00 80 1012.0
20260506004558 0 130 9.7 14.5 0.00 0.00 0.00 79 1012.0
20260506004304 1 128 8.0 12.9 0.00 0.00 0.00 80 1012.0
20260506003304 1 142 3.2 12.9 0.00 0.00 0.00 80 1011.9
20260506003056 1 143 3.2 11.3 0.00 0.00 0.00 79 1011.9
20260506001804 1 128 8.0 12.9 0.00 0.00 0.00 79 1012.0
20260506001559 1 103 3.2 11.3 0.00 0.00 0.00 79 1011.8
20260506001304 1 91 4.8 4.8 0.00 0.00 0.00 79 1011.9
20260506000304 1 115 14.5 19.3 0.00 0.00 0.00 78 1011.9
20260505234804 1 111 8.0 8.0 0.00 0.00 0.00 78 1012.0
20260505234604 1 111 6.4 14.5 0.00 0.00 0.00 78 1011.9
20260505234304 1 111 8.0 11.3 0.00 0.00 0.00 78 1012.0
20260505233804 1 111 11.3 14.5 0.00 0.00 0.00 78 1012.0
20260505233304 1 114 12.9 14.5 0.00 0.00 0.00 78 1012.0
20260505233110 1 115 11.3 12.9 0.00 0.00 0.00 77 1011.9
20260505231804 1 91 9.7 9.7 0.00 0.00 0.00 77 1012.0
20260505231605 1 91 8.0 12.9 0.00 0.00 0.00 77 1012.0
20260505231304 1 91 9.7 12.9 0.00 0.00 0.00 77 1012.0
20260505230304 1 91 4.8 11.3 0.00 0.00 0.00 77 1012.1
20260505230059 1 91 4.8 11.3 0.00 0.00 0.00 77 1012.0
20260505224804 2 91 8.0 9.7 0.00 0.00 0.00 77 1012.3
20260505224558 1 91 6.4 11.3 0.00 0.00 0.00 76 1012.2
20260505224304 2 91 9.7 11.3 0.00 0.00 0.00 76 1012.2
20260505223804 2 91 9.7 11.3 0.00 0.00 0.00 76 1012.3
20260505223304 2 91 4.8 9.7 0.00 0.00 0.00 76 1012.3
20260505223057 2 91 6.4 9.7 0.00 0.00 0.00 76 1012.3
20260505221804 2 69 8.0 11.3 0.00 0.00 0.00 76 1012.3
20260505221556 2 52 8.0 12.9 0.00 0.00 0.00 76 1012.2
20260505221304 2 59 11.3 12.9 0.00 0.00 0.00 76 1012.3
20260505220828 2 73 12.9 12.9 0.00 0.00 0.00 75 1012.3
20260505220304 2 73 9.7 11.3 0.00 0.00 0.00 75 1012.2
20260505220057 2 73 8.0 11.3 0.00 0.00 0.00 75 1012.1
20260505214600 2 69 6.4 12.9 0.00 0.00 0.00 74 1012.2
20260505214304 2 63 8.0 11.3 0.00 0.00 0.00 75 1012.2
20260505213804 2 85 9.7 12.9 0.00 0.00 0.00 75 1012.3
20260505213305 3 97 8.0 11.3 0.00 0.00 0.00 74 1012.1
20260505213059 2 88 6.4 11.3 0.00 0.00 0.00 74 1012.0
20260505211804 3 76 9.7 11.3 0.00 0.00 0.00 74 1012.0
20260505211610 3 68 9.7 12.9 0.00 0.00 0.00 73 1011.9
20260505211304 3 75 11.3 12.9 0.00 0.00 0.00 73 1012.0
20260505210804 3 88 9.7 11.3 0.00 0.00 0.00 73 1011.9
20260505210304 3 89 6.4 16.1 0.00 0.00 0.00 72 1011.9
20260505204603 3 42 8.0 14.5 0.00 0.00 0.00 71 1011.7
20260505204304 4 40 9.7 14.5 0.00 0.00 0.00 70 1011.9
20260505203804 4 39 11.3 14.5 0.00 0.00 0.00 70 1011.8
20260505203304 4 35 11.3 14.5 0.00 0.00 0.00 69 1011.8
20260505203100 4 35 9.7 14.5 0.00 0.00 0.00 69 1011.7
20260505201601 4 48 9.7 14.5 0.00 0.00 0.00 67 1011.7
20260505201307 5 38 9.7 11.3 0.00 0.00 0.00 67 1011.7
20260505200804 5 40 9.7 11.3 0.00 0.00 0.00 66 1011.7
20260505200304 5 46 9.7 14.5 0.00 0.00 0.00 65 1011.8
20260505200100 5 48 9.7 14.5 0.00 0.00 0.00 65 1011.7
20260505194804 6 24 6.4 8.0 0.00 0.43 0.00 61 1011.7
20260505194609 6 21 4.8 8.0 0.00 0.00 0.00 60 1011.6
20260505194304 7 34 4.8 4.8 0.00 0.43 0.00 59 1011.6
20260505193804 7 34 4.8 8.0 0.00 0.43 0.00 59 1011.7
20260505193304 7 23 6.4 11.3 0.00 0.43 0.00 58 1011.6
20260505193058 7 19 4.8 11.3 0.00 0.00 0.00 57 1011.6
20260505191804 7 26 8.0 11.3 0.00 0.89 0.00 53 1011.5
20260505191556 7 31 8.0 14.5 0.00 0.00 0.00 52 1011.5
20260505191304 7 37 11.3 14.5 0.00 0.89 0.00 51 1011.6
20260505190804 8 34 8.0 11.3 0.00 0.89 0.00 51 1011.6
20260505190304 8 38 8.0 12.9 0.00 0.89 0.00 50 1011.5
20260505190055 8 34 8.0 12.9 0.00 0.00 0.00 50 1011.5
20260505184804 8 41 4.8 8.0 0.00 0.89 0.00 46 1011.6
20260505184557 8 36 4.8 9.7 0.00 0.00 0.00 46 1011.4
20260505184304 9 34 4.8 9.7 0.00 0.89 0.00 46 1011.5
20260505183805 9 33 8.0 9.7 0.00 0.89 0.00 44 1011.5
20260505183304 9 45 9.7 16.1 0.00 0.89 0.00 45 1011.5
20260505183058 9 40 6.4 16.1 0.00 0.00 0.00 45 1011.5
20260505181804 10 30 6.4 16.1 0.00 1.32 0.00 45 1011.5
20260505181600 10 29 9.7 16.1 0.00 0.00 0.00 44 1011.4
20260505181304 10 14 9.7 16.1 0.00 1.32 0.00 44 1011.5
20260505180804 10 25 8.0 16.1 0.00 1.32 0.00 45 1011.4
20260505180304 10 27 11.3 19.3 0.00 1.32 0.00 44 1011.4
20260505180058 10 25 8.0 17.7 0.00 0.00 0.00 43 1011.3
20260505174806 10 15 9.7 19.3 0.00 1.32 0.00 44 1011.3
20260505174602 10 37 9.7 17.7 0.00 0.00 0.00 43 1011.3
20260505174304 10 38 11.3 16.1 0.00 1.32 0.00 44 1011.3
20260505173804 10 10 8.0 14.5 0.00 1.32 0.00 48 1011.2
20260505173304 10 24 11.3 19.3 0.00 1.32 0.00 48 1011.3
20260505173100 10 17 11.3 17.7 0.00 0.00 0.00 47 1011.2
20260505171804 10 23 9.7 12.9 0.00 1.75 0.00 49 1011.3
20260505171606 9 22 6.4 12.9 0.00 0.00 0.00 49 1011.2
20260505171304 10 356 8.0 12.9 0.00 1.75 0.00 48 1011.2
20260505170804 10 35 8.0 11.3 0.00 1.75 0.00 48 1011.2
20260505170304 10 27 8.0 12.9 0.00 1.75 0.00 48 1011.2
20260505170059 10 38 4.8 12.9 0.00 0.00 0.00 47 1011.1
20260505164804 9 28 8.0 16.1 0.00 1.75 0.00 50 1011.4
20260505164622 9 8 9.7 16.1 0.00 0.00 0.00 50 1011.4
20260505164304 9 17 8.0 16.1 0.00 1.75 0.00 50 1011.5
20260505163804 9 17 8.0 14.5 0.00 1.75 0.00 50 1011.5
20260505163304 10 34 9.7 19.3 0.00 1.75 0.00 51 1011.5
20260505163107 10 17 9.7 19.3 0.00 0.00 0.00 50 1011.5
20260505161616 9 16 11.3 22.5 0.00 0.00 0.00 50 1011.4
20260505161304 10 21 14.5 19.3 0.00 1.75 0.00 53 1011.5
20260505160804 10 30 11.3 19.3 0.00 1.75 0.00 51 1011.6
20260505160305 10 29 11.3 20.9 0.00 1.75 0.00 51 1011.6
20260505160110 10 39 14.5 20.9 0.00 0.00 0.00 50 1011.6
20260505153304 9 42 11.3 20.9 0.00 1.75 0.00 53 1011.4
20260505153101 9 38 12.9 20.9 0.00 0.00 0.00 53 1011.4
20260505151804 9 1 8.0 19.3 0.00 1.75 0.00 53 1011.4
20260505151604 9 340 11.3 20.9 0.00 0.00 0.00 52 1011.4
20260505150804 10 35 16.1 20.9 0.00 1.75 0.00 54 1011.6
20260505150304 10 14 14.5 22.5 0.00 1.75 0.00 54 1011.6
20260505140305 10 21 11.3 24.1 0.00 1.75 0.00 56 1011.8
20260505130304 10 19 19.3 25.7 0.00 3.07 0.00 57 1011.9
20260505130113 9 8 16.1 25.7 0.00 0.00 0.00 56 1011.9
20260505124804 10 22 14.5 25.7 0.00 3.07 0.00 55 1011.8
20260505124615 9 27 19.3 25.7 0.00 0.00 0.00 57 1011.7
20260505124304 9 23 16.1 25.7 0.00 3.07 0.00 56 1011.8
20260505123306 10 20 14.5 22.5 0.00 3.07 0.00 55 1011.8
20260505123101 9 38 14.5 22.5 0.00 0.00 0.00 54 1011.7
20260505121804 10 13 16.1 24.1 0.00 3.07 0.00 55 1011.7
20260505121559 9 6 17.7 25.7 0.00 0.00 0.00 53 1011.7
20260505121304 9 11 19.3 25.7 0.00 3.07 0.00 54 1011.8
20260505120804 10 11 19.3 24.1 0.00 3.07 0.00 54 1011.8
20260505120304 10 14 14.5 29.0 0.00 3.07 0.00 55 1011.8
20260505120111 10 44 16.1 29.0 0.00 0.00 0.00 55 1011.7
20260505114804 10 22 20.9 29.0 0.00 3.07 0.00 54 1011.7
20260505114601 9 25 19.3 27.4 0.00 0.00 0.00 52 1011.6
20260505114304 10 14 20.9 27.4 0.00 3.07 0.00 53 1011.6
20260505113804 10 17 16.1 24.1 0.00 3.07 0.00 56 1011.6
20260505113304 9 12 19.3 25.7 0.00 3.07 0.00 55 1011.5
20260505113105 8 11 12.9 25.7 0.00 0.00 0.00 54 1011.5
20260505111804 9 36 17.7 25.7 0.00 3.07 0.00 55 1011.5
20260505111557 9 13 16.1 22.5 0.00 0.00 0.00 54 1011.4
20260505111304 9 5 16.1 22.5 0.00 3.07 0.00 54 1011.6
20260505110304 9 16 17.7 22.5 0.00 3.07 0.00 54 1011.5
20260505110117 8 357 14.5 22.5 0.00 0.00 0.00 53 1011.4